TimeEST,TemperatureF,Dew PointF,Humidity,Sea Level PressureIn,VisibilityMPH,Wind Direction,Wind SpeedMPH,Gust SpeedMPH,PrecipitationIn,Events,Conditions,WindDirDegrees,DateUTC
12:53 AM,19.9,10.9,68,30.09,10.0,North,4.6,-,N/A,,Clear,350,2013-03-04 05:53:00
1:53 AM,16.0,10.0,77,30.12,10.0,West,4.6,-,N/A,,Clear,280,2013-03-04 06:53:00
2:53 AM,17.1,10.9,77,30.10,10.0,Calm,Calm,-,N/A,,Clear,0,2013-03-04 07:53:00
3:53 AM,14.0,9.0,80,30.11,10.0,West,4.6,-,N/A,,Clear,280,2013-03-04 08:53:00
4:53 AM,14.0,9.0,80,30.12,10.0,West,3.5,-,N/A,,Clear,280,2013-03-04 09:53:00
5:53 AM,12.9,8.1,81,30.15,10.0,West,5.8,-,N/A,,Clear,270,2013-03-04 10:53:00
6:53 AM,12.9,8.1,81,30.16,10.0,West,3.5,-,N/A,,Clear,280,2013-03-04 11:53:00
7:53 AM,15.1,9.0,77,30.16,10.0,WNW,4.6,-,N/A,,Clear,300,2013-03-04 12:53:00
8:53 AM,18.0,12.0,78,30.17,10.0,Calm,Calm,-,N/A,,Clear,0,2013-03-04 13:53:00
9:53 AM,21.0,12.9,71,30.17,10.0,West,5.8,-,N/A,,Clear,270,2013-03-04 14:53:00
10:53 AM,24.1,14.0,65,30.16,10.0,West,6.9,-,N/A,,Clear,270,2013-03-04 15:53:00
11:53 AM,26.1,15.1,63,30.16,10.0,West,8.1,-,N/A,,Clear,270,2013-03-04 16:53:00
12:53 PM,27.0,14.0,58,30.16,10.0,NW,5.8,-,N/A,,Clear,320,2013-03-04 17:53:00
1:53 PM,28.9,15.1,56,30.14,10.0,West,5.8,-,N/A,,Clear,270,2013-03-04 18:53:00
2:53 PM,30.0,14.0,51,30.13,10.0,Calm,Calm,-,N/A,,Clear,0,2013-03-04 19:53:00
3:53 PM,30.2,15.8,55,30.09,10.0,Calm,Calm,-,N/A,,Clear,0,2013-03-04 20:53:00
4:53 PM,30.9,15.1,52,30.13,10.0,West,3.5,-,N/A,,Clear,260,2013-03-04 21:53:00
5:53 PM,28.9,16.0,58,30.13,10.0,WNW,3.5,-,N/A,,Clear,300,2013-03-04 22:53:00
6:53 PM,27.0,15.1,61,30.12,10.0,Calm,Calm,-,N/A,,Clear,0,2013-03-04 23:53:00
7:53 PM,26.1,15.1,63,30.13,10.0,Calm,Calm,-,N/A,,Clear,0,2013-03-05 00:53:00
8:53 PM,23.0,15.1,72,30.14,10.0,Calm,Calm,-,N/A,,Clear,0,2013-03-05 01:53:00
9:53 PM,25.0,12.0,58,30.14,10.0,ESE,3.5,-,N/A,,Clear,110,2013-03-05 02:53:00
10:53 PM,19.9,14.0,78,30.14,10.0,Calm,Calm,-,N/A,,Clear,0,2013-03-05 03:53:00
11:53 PM,21.0,12.0,68,30.15,10.0,ENE,3.5,-,N/A,,Clear,70,2013-03-05 04:53:00